Regional Weather Roundup
Issued by NWS

Home | Current Version | Previous Version | Graphics & Text | Print | Product List | Glossary Off
Versions: 1 2 3 4 5 6 7 8 9 10 11 12 13 14 15 16 17 18 19 20 21 22 23 24 25 26 27 28 29 30 31 32 33 34 35 36 37 38 39 40 41 42 43 44 45 46 47 48 49 50

919
ASUS43 KLSX 061010
RWRMO

WEATHER SUMMARY FOR MISSOURI
NATIONAL WEATHER SERVICE SPRINGFIELD MO
400 AM CST SAT FEB 06 2016

NOTE: "FAIR" INDICATES FEW OR NO CLOUDS BELOW 12,000 FEET WITH NO
       SIGNIFICANT WEATHER AND/OR OBSTRUCTIONS TO VISIBILITY.
       CURRENT SKY AND/OR WEATHER CONDITIONS ARE NOT AVAILABLE FOR
       CHILLICOTHE AND FARMINGTON.

MOZ001>031-035>038-043-044-053-054-061100-
...NORTHERN AND WESTERN MISSOURI...

CITY           SKY/WX    TMP DP  RH WIND       PRES   REMARKS
KANSAS CTY INT CLEAR     29  23  78 NE5       30.24F WCI  24
KANSAS C DTWN  CLEAR     30  24  78 CALM      30.25F
LEE`S SUMMIT   CLEAR     31  22  69 NW6       30.24R WCI  25
ST JOSEPH      CLEAR     25  21  85 CALM      30.26F
CHILLICOTHE      N/A     26  22  84 CALM      30.26F
KIRKSVILLE     CLEAR     24  17  74 S6        30.25F WCI  17

$$
MOZ066>068-077>081-088>096-101>105-061100-
...SOUTHWEST MISSOURI...

CITY           SKY/WX    TMP DP  RH WIND       PRES   REMARKS
SPRINGFIELD    PTCLDY    31  17  56 S7        30.26F WCI  24
JOPLIN         CLEAR     35  18  49 S8        30.28S WCI  29

$$
MOZ032>034-039>042-045>050-055>058-069>072-061100-
...CENTRAL MISSOURI...

CITY           SKY/WX    TMP DP  RH WIND       PRES   REMARKS
COLUMBIA       CLOUDY    31  19  61 S5        30.26F WCI  26
JEFFERSON CITY CLOUDY    29  21  72 SE6       30.29F WCI  23
ROLLA          CLEAR     31  19  61 SW9       30.26S WCI  23
SEDALIA        CLEAR     35  21  56 S8        30.26F WCI  29
WHITEMAN AFB   CLEAR     33  22  63 S7        30.24S WCI  26
WARRENSBURG    CLEAR     34  23  64 S5        30.25S WCI  30
OSAGE BEACH    CLOUDY    30  19  64 CALM      30.28S

$$
MOZ051-052-059>065-061100-
...EAST CENTRAL MISSOURI...

CITY           SKY/WX    TMP DP  RH WIND       PRES   REMARKS
ST LOUIS INTL  PTCLDY    30  21  69 SE6       30.31S WCI  24
SPIRIT OF STL  CLEAR     26  22  84 CALM      30.30S
ST CHARLES     CLOUDY    29  24  82 E6        30.31S WCI  23

$$
MOZ072>076-082>087-097>100-106>115-061100-
...SOUTH CENTRAL AND SOUTHEAST MISSOURI...

CITY           SKY/WX    TMP DP  RH WIND       PRES   REMARKS
CAPE GIRARDEAU CLEAR     25  22  88 CALM      30.33S
FARMINGTON     CLEAR     24  21  88 CALM      30.29F
POPLAR BLUFF   CLEAR     29  24  82 CALM      30.33S
WEST PLAINS    PTCLDY    34  14  43 SW7       30.30F WCI  28

$$




USA.gov is the U.S. government's official web portal to all federal, state and local government web resources and services.